Skip Page Navigation
NASA JPL Caltech
NASA Logo - Jet Propulsion Laboratory + View the NASA Portal
+ Center for Near-Earth Object Studies
JPL Home Earth Solar System Stars & Galaxies Technology
JPL Solar System Dynamics
BODIES ORBITS EPHEMERIDES TOOLS PHYSICAL DATA DISCOVERY FAQ SITE MAP
IMPORTANT: The SSD Announcement email list is now available. Major changes are coming in the near future, including possible hostname and/or URL changes. To be notified of such changes, subscribe to this email list.

Please visit this page for more details.


JPL Small-Body Database Browser
Search: [ help ]  
39096 (2000 WE1)
Classification: Mars-crossing Asteroid          SPK-ID: 2039096
Ephemeris | Orbit Diagram | Orbital Elements | Mission Design | Physical Parameters | Discovery Circumstances | Close-Approach Data ]

[ show orbit diagram ]
Orbital Elements at Epoch 2459000.5 (2020-May-31.0) TDB
Reference: JPL 22 (heliocentric ecliptic J2000)
 Element Value Uncertainty (1-sigma)   Units 
e .3845058607002424 5.4486e-08  
a 2.642163248062532 1.7455e-08 au
q 1.6262359942557 1.459e-07 au
i 8.699886807007003 4.6987e-06 deg
node 81.72279911215219 4.5779e-05 deg
peri 287.7448897851904 4.5989e-05 deg
M 190.0236837450265 9.6019e-06 deg
tp 2459741.168389391986
(2022-Jun-10.66838939)
4.7832e-05 TDB
period 1568.692780593855
4.29
1.5545e-05
4.256e-08
d
yr
n .2294904422672973 2.2741e-09 deg/d
Q 3.658090501869364 2.4167e-08 au
  Orbit Determination Parameters
   # obs. used (total)      648  
   data-arc span      8489 days (23.24 yr)  
   first obs. used      1996-11-07  
   last obs. used      2020-02-04  
   planetary ephem.      DE431  
   SB-pert. ephem.      SB431-N16  
   condition code      0  
   norm. resid. RMS      .56782  
   source      ORB  
   producer      Otto Matic  
   solution date      2020-Feb-23 05:05:41  

Additional Information
 Earth MOID = .652677 au 
 Jupiter MOID = 1.88421 au 
 T_jup = 3.270 
[ show covariance matrix ]

Ephemeris | Orbit Diagram | Orbital Elements | Mission Design | Physical Parameters | Discovery Circumstances | Close-Approach Data ]

Physical Parameter Table
Parameter Symbol Value Units Sigma Reference Notes
absolute magnitude H 15.0   n/a MPO468228  

39096 (2000 WE1)          Discovered 2000-Nov-17 by LINEAR at Socorro
Reference: 20020328/Numbers.arcLast Updated: 2004-04-19

[ show close-approach data ]
Alternate Designations
 2000 WE1 = 1996 VS38 
Ephemeris | Orbit Diagram | Orbital Elements | Mission Design | Physical Parameters | Discovery Circumstances | Close-Approach Data ]
ABOUT SSD CREDITS/AWARDS PRIVACY/COPYRIGHT GLOSSARY LINKS
FirstGov 2020-Apr-04 10:04 UT
(server date/time)  
NASA Home Page
Site Manager:   Ryan S. Park
Webmaster  Alan B. Chamberlin